Time,TemperatureF,DewpointF,PressureIn,WindDirection,WindDirectionDegrees,WindSpeedMPH,WindSpeedGustMPH,Humidity,HourlyPrecipIn,Conditions,Clouds,dailyrainin,SoftwareType,DateUTC
2013-04-12 07:55:00,73.0,71.8,30.66,East,90,0.0,0.0,96,0.00,,,0.00,Weather View 32 v70,2013-04-12 11:55:00,
2013-04-12 07:56:00,73.0,71.8,30.66,East,90,0.0,0.0,96,0.00,,,0.00,Weather View 32 v70,2013-04-12 11:56:00,
2013-04-12 08:01:00,73.0,71.8,30.66,SSE,157,0.0,0.0,96,0.00,,,0.00,Weather View 32 v70,2013-04-12 12:01:00,
2013-04-12 08:06:00,73.0,71.8,30.66,South,180,0.0,0.0,96,0.00,,,0.00,Weather View 32 v70,2013-04-12 12:06:00,
2013-04-12 08:11:00,73.0,71.8,30.66,South,180,0.0,1.0,96,0.00,,,0.00,Weather View 32 v70,2013-04-12 12:11:00,
2013-04-12 08:17:00,74.0,72.8,30.66,South,180,0.0,1.0,96,0.00,,,0.00,Weather View 32 v70,2013-04-12 12:17:00,
2013-04-12 08:22:00,74.0,72.5,30.67,SSW,202,0.0,1.0,95,0.00,,,0.00,Weather View 32 v70,2013-04-12 12:22:00,
2013-04-12 08:27:00,74.0,72.2,30.67,South,180,0.0,2.0,94,0.00,,,0.00,Weather View 32 v70,2013-04-12 12:27:00,
2013-04-12 08:30:00,74.0,72.2,30.67,South,180,0.0,2.0,94,0.00,,,0.00,Weather View 32 v70,2013-04-12 12:30:00,
2013-04-12 08:32:00,74.0,72.2,30.67,SSE,157,0.0,2.0,94,0.00,,,0.00,Weather View 32 v70,2013-04-12 12:32:00,
2013-04-12 08:37:00,74.0,72.2,30.67,South,180,0.0,2.0,94,0.00,,,0.00,Weather View 32 v70,2013-04-12 12:37:00,
2013-04-12 08:42:00,74.0,72.2,30.66,South,180,0.0,3.0,94,0.00,,,0.00,Weather View 32 v70,2013-04-12 12:42:00,
2013-04-12 08:47:00,74.0,72.2,30.66,South,180,0.0,3.0,94,0.00,,,0.00,Weather View 32 v70,2013-04-12 12:47:00,
2013-04-12 08:52:00,74.0,71.8,30.66,SSE,157,0.0,3.0,93,0.00,,,0.00,Weather View 32 v70,2013-04-12 12:52:00,
2013-04-12 08:57:00,75.0,72.8,30.66,South,180,0.0,3.0,93,0.00,,,0.00,Weather View 32 v70,2013-04-12 12:57:00,
2013-04-12 09:02:00,75.0,72.5,30.66,East,90,0.0,3.0,92,0.00,,,0.00,Weather View 32 v70,2013-04-12 13:02:00,
2013-04-12 09:07:00,75.0,72.5,30.66,South,180,0.0,3.0,92,0.00,,,0.00,Weather View 32 v70,2013-04-12 13:07:00,
2013-04-12 09:12:00,75.0,72.5,30.65,South,180,0.0,3.0,92,0.00,,,0.00,Weather View 32 v70,2013-04-12 13:12:00,
2013-04-12 09:20:00,75.0,72.5,30.64,South,180,0.0,3.0,92,0.00,,,0.00,Weather View 32 v70,2013-04-12 13:20:00,
2013-04-12 09:25:00,75.0,72.5,30.64,South,180,0.0,3.0,92,0.00,,,0.00,Weather View 32 v70,2013-04-12 13:25:00,
2013-04-12 09:30:00,75.0,72.2,30.65,South,180,0.0,3.0,91,0.00,,,0.00,Weather View 32 v70,2013-04-12 13:30:00,
2013-04-12 09:35:00,75.0,72.5,30.65,WSW,247,0.0,3.0,92,0.00,,,0.00,Weather View 32 v70,2013-04-12 13:35:00,
2013-04-12 09:40:00,75.0,72.2,30.66,South,180,0.0,4.0,91,0.00,,,0.00,Weather View 32 v70,2013-04-12 13:40:00,
2013-04-12 09:45:00,75.0,72.2,30.66,SSW,202,0.0,4.0,91,0.00,,,0.00,Weather View 32 v70,2013-04-12 13:45:00,
2013-04-12 09:50:00,75.0,72.2,30.66,North,360,0.0,4.0,91,0.00,,,0.00,Weather View 32 v70,2013-04-12 13:50:00,
2013-04-12 09:55:00,75.0,72.2,30.66,South,180,0.0,4.0,91,0.00,,,0.00,Weather View 32 v70,2013-04-12 13:55:00,
2013-04-12 10:00:00,76.0,73.2,30.67,South,180,0.0,4.0,91,0.00,,,0.00,Weather View 32 v70,2013-04-12 14:00:00,
2013-04-12 10:05:00,75.0,71.9,30.67,SSW,202,0.0,4.0,90,0.00,,,0.00,Weather View 32 v70,2013-04-12 14:05:00,
2013-04-12 10:10:00,76.0,73.2,30.67,SSW,202,0.0,4.0,91,0.00,,,0.00,Weather View 32 v70,2013-04-12 14:10:00,
2013-04-12 10:30:00,76.0,72.8,30.67,SSE,157,0.0,4.0,90,0.00,,,0.00,Weather View 32 v70,2013-04-12 14:30:00,
2013-04-12 11:00:00,77.0,72.8,30.68,SE,135,0.0,3.0,87,0.00,,,0.00,Weather View 32 v70,2013-04-12 15:00:00,
2013-04-12 11:30:00,77.0,72.1,30.68,South,180,0.0,3.0,85,0.00,,,0.00,Weather View 32 v70,2013-04-12 15:30:00,
2013-04-12 12:00:00,78.0,71.7,30.65,SSW,202,0.0,3.0,81,0.00,,,0.00,Weather View 32 v70,2013-04-12 16:00:00,
2013-04-12 12:30:00,79.0,70.8,30.63,SSW,202,0.0,3.0,76,0.00,,,0.00,Weather View 32 v70,2013-04-12 16:30:00,
2013-04-12 13:00:00,81.0,71.5,30.58,SW,225,0.0,4.0,73,0.00,,,0.00,Weather View 32 v70,2013-04-12 17:00:00,
2013-04-12 13:30:00,81.0,71.1,30.62,SSW,202,0.0,4.0,72,0.00,,,0.00,Weather View 32 v70,2013-04-12 17:30:00,
2013-04-12 14:30:00,81.0,70.2,30.61,South,180,0.0,3.0,70,0.00,,,0.00,Weather View 32 v70,2013-04-12 18:30:00,
2013-04-12 15:00:00,81.0,69.4,30.60,SE,135,0.0,3.0,68,0.00,,,0.00,Weather View 32 v70,2013-04-12 19:00:00,